カタログに戻る

STARLINK-3306

運用中通信VLEO
NORAD 50163·PAYLOAD·🇺🇸 United States

打ち上げ Dec 18, 2021 から Vandenberg Space Force Base

Loading…

次のパス (今後24時間)

TLE

最新Source: CelesTrak SupGP

元期: Sep 14, 2026, 21:47 UTC

1 50163C 21125H   26257.90812500  .00195340  00000+0  81307-3 0  2573
2 50163  53.2101  66.2910 0003287 261.6520 279.9205 15.84897983    12

AllMySatでSTARLINK-3306をリアルタイム追跡

Download on the App Store